Temp
78 69 65 71 71 70 67 65 64 70 77 72 70 70 74 80 82 81 81 81 81 81 85 84 86 85 83 81 79 78 78 77 77 75 75 73 71 76 85 86 85 83 83 82
72 65 74 74 72 69 67 65 65 71 74 70 68 68 75 80 80 80 80 80 79 80 81 82 81 81 81 79 79 77 77 76 77 76 76 75 77 80 82 86 84 82 83 81
66 71 76 71 69 66 66 64 64 63 68 71 69 68 73 79 79 77 76 76 78 77 76 77 79 79 79 78 78 77 75 75 79 77 77 75 75 76 79 81 82 81 82 81
68 76 72 69 66 68 59 70 67 64 62 56 70 54 67 68 70 72 72 73 73 73 76 79 79 78 77 79 79 77 76 74 79 79 76 75 75 75 76 78 82 80 81 80
65 69 68 64 66 68 63 71 66 66 63 61 63 56 63 69 63 65 68 69 71 73 74 76 78 80 83 81 78 76 75 73 77 77 76 75 74 73 76 70 77 78 78 79
70 78 74 69 70 71 74 68 67 65 63 48 58 56 59 59 60 63 67 68 70 72 72 74 79 79 78 83 82 77 74 72 76 77 76 75 74 74 72 71 73 78 79 78
67 71 74 72 66 72 69 59 44 45 47 47 60 54 51 58 65 65 63 65 66 69 72 74 69 68 69 71 77 79 75 72 75 76 75 76 74 75 74 75 73 77 78 78
54 53 64 71 67 62 63 58 39 30 38 44 57 49 54 61 66 66 65 63 61 61 64 69 66 65 68 73 72 79 77 74 77 76 74 75 75 73 73 75 80 79 77 78
53 54 68 71 72 70 62 54 63 38 48 42 54 58 61 63 63 62 61 60 56 58 61 63 65 63 63 70 68 70 79 77 78 77 75 74 74 74 72 73 80 80 79 79
60 48 65 69 71 70 62 65 49 46 32 34 48 50 48 54 55 57 56 54 54 56 57 59 62 63 68 69 67 76 79 78 78 76 75 74 75 75 75 75 76 78 76 76
64 57 56 65 63 59 59 54 58 54 48 34 33 45 59 55 56 54 55 54 54 54 55 57 61 66 68 69 76 77 77 78 77 76 75 72 73 72 74 72 77 72 73 71
64 56 50 56 68 71 68 60 59 44 40 40 37 40 64 62 60 57 52 53 54 54 56 58 62 68 76 77 77 72 67 68 74 76 75 73 71 70 69 71 70 70 69 69
61 54 45 51 55 66 58 61 60 58 51 42 35 41 64 63 59 57 52 52 52 53 55 56 60 61 64 62 72 69 65 64 70 75 72 71 68 68 69 68 67 68 66 65
60 55 48 38 48 56 53 56 61 57 41 41 42 49 57 58 55 55 51 51 50 51 52 54 55 58 60 60 59 65 66 72 76 73 70 66 64 64 64 63 63 63 63 61
60 49 54 57 58 59 59 59 58 54 54 42 49 50 54 57 54 54 50 51 49 50 51 51 53 56 59 59 61 59 62 75 70 63 63 61 61 62 61 61 59 59 58 56
63 52 55 52 60 62 60 56 57 59 58 57 54 52 59 61 62 55 50 50 48 48 50 51 53 58 57 59 59 61 67 63 63 63 60 59 59 59 57 56 54 53 52 51
57 53 48 46 58 60 45 48 58 59 59 55 45 52 58 58 57 52 50 49 47 48 50 50 52 54 56 58 58 57 58 59 59 59 58 56 54 54 54 53 52 50 50 50
57 54 53 49 52 43 58 67 66 61 59 56 56 55 60 59 60 53 53 49 48 49 50 50 51 54 54 56 59 57 55 56 55 55 55 54 53 52 52 52 51 50 49 48
65 58 49 46 47 54 55 61 60 58 55 58 57 58 61 62 62 54 55 51 50 52 52 51 52 53 54 55 57 56 54 54 54 54 54 53 52 52 51 50 49 49 48 48
66 62 52 50 41 34 52 59 69 67 49 61 62 61 59 61 51 55 56 51 52 54 54 53 52 52 52 52 54 53 52 53 51 51 52 53 52 51 50 49 48 47 49 50
55 57 52 50 47 55 59 65 69 48 49 63 65 63 59 54 59 59 62 54 53 52 52 54 53 50 50 51 50 48 47 47 49 48 50 51 51 50 49 48 48 48 49 49
53 50 50 53 47 41 66 65 53 56 65 66 66 64 59 61 64 64 63 56 51 49 51 53 52 48 48 49 48 45 44 46 47 47 48 48 49 49 48 47 46 46 47 47
52 56 53 53 54 62 68 62 68 69 65 62 65 66 65 61 62 63 61 56 54 49 49 52 51 47 47 47 47 44 44 46 46 46 47 47 48 47 47 46 45 44 45 48
62 67 58 57 62 63 66 69 69 70 68 67 68 67 67 63 63 63 61 56 53 49 48 49 50 46 44 45 45 44 45 46 46 45 46 46 46 46 46 46 46 47 50 51
58 60 57 57 62 66 68 67 70 70 70 69 70 65 65 67 63 63 60 55 52 48 48 47 47 44 42 43 43 44 45 46 45 46 45 46 45 42 39 39 44 43 45 53
61 58 55 56 64 63 64 68 69 68 67 68 65 66 66 69 62 63 61 55 50 47 47 46 46 43 41 42 42 43 45 46 45 44 44 43 44 44 43 41 38 40 41 41
MSLP
1003.88 1004.07 1003.55 1002.60 1003.16 1003.44 1003.09 1002.55 1001.54 1000.61 999.62 999.25 998.94 998.49 997.82 996.98 996.27 996.22 996.42 996.82 997.09 997.25 997.27 997.49 997.94 998.31 998.82 999.46 1000.16 1000.67 1001.25 1001.36 1001.72 1002.41 1002.49 1003.27 1003.87 1003.28 1003.45 1003.78 1004.15 1005.11 1005.92 1006.48
1003.69 1002.91 1002.84 1003.25 1003.49 1003.39 1002.94 1002.12 1001.16 1000.41 1000.16 1000.29 999.50 998.29 996.86 995.97 996.05 996.73 996.76 997.28 997.48 997.91 998.05 998.13 998.30 998.55 998.75 998.94 999.34 1000.05 1000.43 1000.91 1001.24 1001.95 1002.17 1002.69 1003.15 1003.17 1002.98 1003.07 1003.73 1004.71 1005.57 1006.43
1003.42 1002.87 1002.83 1003.35 1003.34 1003.01 1002.59 1001.95 1001.36 1001.29 1000.90 1000.21 998.67 997.13 996.26 996.00 996.59 997.52 998.31 998.67 998.59 998.67 998.65 998.64 998.51 998.48 998.52 998.73 998.95 999.29 999.83 1000.21 1000.54 1000.88 1001.56 1002.06 1002.73 1002.73 1002.82 1002.59 1003.30 1004.37 1005.16 1005.80
1003.61 1002.52 1002.89 1003.09 1003.25 1002.99 1002.73 1002.38 1002.16 1001.59 1000.86 999.54 999.10 997.48 997.36 997.67 998.29 999.13 999.54 999.81 1000.02 1000.03 999.63 999.03 998.70 998.27 998.00 997.96 998.28 998.59 999.07 999.43 999.96 1000.42 1001.09 1001.51 1001.97 1002.39 1002.52 1002.57 1002.74 1003.89 1004.68 1005.53
1003.85 1003.15 1002.90 1003.42 1003.21 1003.71 1003.02 1002.48 1002.23 1001.38 1000.52 999.96 998.91 998.40 998.09 998.59 999.51 1000.05 1000.51 1001.04 1001.33 1000.81 1000.23 999.39 998.55 997.74 997.05 996.87 997.18 997.79 998.38 998.83 999.26 999.91 1000.43 1001.00 1001.59 1001.97 1001.99 1002.53 1002.92 1003.46 1004.38 1005.22
1003.49 1003.11 1002.92 1003.58 1003.90 1003.33 1002.52 1002.38 1001.95 1001.49 1000.42 1000.14 999.95 1000.31 999.05 999.81 1001.25 1001.17 1001.51 1001.80 1001.54 1000.86 1000.32 999.38 998.07 997.53 996.81 996.22 995.78 996.50 997.26 998.09 998.68 999.13 999.86 1000.23 1001.01 1001.34 1001.75 1002.22 1002.62 1003.07 1003.89 1004.87
1003.70 1001.89 1003.22 1003.99 1003.67 1003.04 1003.06 1003.15 1003.60 1002.87 1001.69 1001.33 1000.76 1000.79 1001.21 1001.45 1002.11 1002.57 1002.76 1002.71 1002.24 1001.16 1000.02 998.94 998.46 998.40 997.58 996.42 995.88 995.06 996.01 996.87 997.79 998.31 999.14 999.45 1000.02 1000.69 1001.05 1001.58 1002.33 1002.65 1003.42 1004.34
1005.51 1004.21 1004.79 1004.11 1004.04 1003.75 1003.55 1004.36 1005.76 1006.09 1004.92 1003.92 1002.48 1001.61 1002.21 1002.65 1002.81 1003.45 1003.44 1003.50 1003.57 1002.72 1001.33 999.71 999.17 998.52 996.89 995.55 994.75 995.27 994.75 995.77 996.61 997.45 998.19 998.67 999.20 999.84 1000.48 1000.68 1001.13 1002.01 1002.90 1003.99
1006.94 1005.98 1005.37 1004.47 1003.94 1004.17 1003.77 1004.55 1005.50 1007.31 1006.85 1005.93 1003.07 1002.13 1002.81 1002.54 1002.87 1003.32 1003.58 1003.75 1003.60 1003.36 1002.27 1000.53 999.01 997.66 996.65 994.33 993.99 994.42 993.20 994.48 995.41 996.27 997.25 997.77 998.38 999.09 999.89 1000.01 1000.19 1001.29 1002.43 1003.56
1008.10 1006.96 1005.83 1004.60 1004.48 1004.09 1004.72 1005.69 1006.10 1007.66 1007.95 1006.75 1004.63 1003.73 1003.03 1003.32 1003.66 1004.14 1004.11 1004.34 1003.99 1003.46 1002.47 1000.28 998.32 996.91 995.70 994.52 993.79 992.96 992.11 993.41 994.49 995.74 996.27 997.16 997.49 998.41 999.13 999.60 999.42 1000.65 1001.77 1003.43
1008.34 1007.83 1006.65 1005.53 1004.03 1004.09 1005.13 1005.74 1005.95 1007.06 1007.99 1008.22 1006.65 1004.63 1004.06 1004.17 1004.55 1004.57 1004.67 1004.73 1004.48 1003.36 1002.37 1000.83 998.42 995.80 994.37 993.48 993.31 993.35 992.56 993.11 993.91 994.82 995.27 996.08 997.04 997.37 998.04 999.25 998.82 1000.53 1002.06 1004.23
1008.97 1008.86 1007.41 1005.96 1004.37 1004.20 1004.08 1005.23 1005.86 1007.16 1008.12 1008.53 1007.70 1005.57 1004.17 1004.11 1004.49 1005.08 1005.03 1005.15 1004.81 1003.64 1002.34 1000.94 998.43 995.04 992.49 992.38 992.33 992.79 993.10 993.44 994.03 994.54 994.22 995.91 994.33 997.62 998.08 999.13 999.86 1000.99 1003.19 1004.66
1009.90 1009.01 1008.20 1006.53 1006.19 1004.59 1005.42 1005.52 1005.95 1006.35 1007.41 1007.73 1007.67 1005.78 1004.83 1004.29 1004.62 1005.40 1005.72 1005.79 1005.30 1004.19 1002.29 1000.55 998.56 996.49 995.48 995.18 993.41 993.05 993.95 993.59 994.29 994.90 994.91 995.00 995.20 997.28 998.36 999.68 1000.97 1002.31 1003.70 1005.43
1010.41 1010.01 1009.66 1008.91 1007.82 1006.73 1005.62 1005.57 1005.11 1005.75 1007.17 1007.23 1006.93 1005.67 1004.83 1004.59 1004.79 1005.51 1005.93 1006.41 1005.75 1004.84 1003.53 1001.83 999.04 996.87 996.92 996.37 995.39 995.47 994.31 994.58 994.20 995.18 996.06 996.93 997.04 998.36 998.93 1000.99 1002.15 1003.17 1004.47 1006.50
1010.13 1009.85 1009.36 1008.22 1007.36 1006.17 1005.17 1004.31 1004.98 1005.32 1006.06 1006.60 1006.28 1005.89 1005.44 1005.24 1005.21 1005.74 1006.49 1006.70 1006.13 1005.13 1004.13 1002.68 1000.91 999.35 999.42 997.24 995.92 996.37 997.18 994.06 995.61 996.80 997.78 999.00 998.75 998.89 1000.72 1002.04 1003.49 1004.73 1006.00 1007.40
1009.57 1009.31 1008.87 1007.97 1006.44 1004.99 1003.99 1004.80 1004.89 1004.84 1005.35 1005.55 1006.00 1005.93 1006.09 1005.58 1005.33 1005.70 1006.64 1006.69 1006.60 1005.98 1004.91 1003.80 1002.31 1000.79 1000.00 999.03 999.23 997.71 996.15 996.08 997.13 997.83 998.79 999.55 999.47 1000.05 1001.49 1003.29 1004.49 1005.79 1007.53 1008.64
1009.43 1009.25 1009.07 1007.47 1005.97 1004.51 1005.02 1005.44 1004.46 1004.79 1005.26 1006.27 1006.51 1006.59 1006.01 1005.49 1005.32 1006.01 1006.67 1006.92 1007.00 1006.64 1005.57 1004.62 1003.57 1002.39 1001.10 999.99 1000.22 999.64 998.10 998.15 998.45 999.24 1000.23 1000.11 1000.02 1002.29 1003.60 1004.29 1005.70 1006.76 1008.41 1009.49
1008.59 1008.92 1008.79 1007.41 1006.51 1004.79 1004.24 1004.07 1004.12 1004.45 1005.37 1006.59 1006.53 1006.38 1005.90 1005.81 1005.42 1006.29 1006.82 1007.05 1006.95 1006.73 1006.19 1005.28 1004.22 1003.21 1002.31 1001.63 1001.26 1000.96 1000.19 1000.04 1000.35 1000.12 1000.48 1000.53 1002.33 1003.66 1004.27 1004.93 1006.19 1008.53 1009.47 1010.53
1007.55 1008.36 1008.37 1007.69 1006.61 1005.71 1004.99 1004.75 1004.44 1004.48 1005.38 1006.39 1006.30 1005.80 1005.45 1005.47 1005.23 1005.96 1006.56 1007.08 1007.31 1006.94 1006.56 1006.17 1005.16 1004.01 1003.31 1002.77 1002.09 1001.50 1001.19 1001.77 1001.61 1002.23 1001.45 1001.11 1001.75 1003.82 1005.16 1005.80 1007.94 1009.42 1010.68 1012.07
1006.92 1007.70 1008.25 1007.73 1007.10 1006.19 1005.97 1006.02 1004.68 1004.19 1004.73 1005.88 1005.43 1005.31 1005.49 1005.23 1004.82 1005.66 1006.35 1007.16 1007.21 1006.99 1006.61 1006.25 1005.87 1005.22 1004.41 1004.05 1003.89 1003.39 1002.73 1003.08 1003.11 1003.26 1003.67 1003.84 1004.12 1004.69 1006.70 1007.91 1009.21 1010.87 1011.83 1012.45
1006.98 1006.93 1006.58 1006.22 1006.00 1005.19 1006.13 1005.50 1004.65 1004.69 1005.96 1005.57 1005.48 1005.36 1005.69 1005.63 1005.66 1005.71 1006.05 1007.12 1007.41 1007.46 1006.97 1006.67 1006.50 1006.10 1005.55 1004.90 1004.97 1004.78 1004.25 1004.53 1004.34 1003.36 1006.07 1004.56 1005.92 1006.45 1007.63 1008.87 1010.29 1011.47 1012.59 1013.55
1007.16 1007.01 1006.61 1006.12 1005.75 1005.46 1005.58 1005.37 1005.92 1006.26 1005.54 1005.07 1004.87 1005.45 1005.58 1005.31 1005.25 1005.46 1005.95 1007.19 1007.63 1007.63 1007.46 1007.15 1006.59 1006.80 1006.61 1005.83 1005.60 1005.34 1004.52 1005.14 1005.10 1004.93 1007.66 1006.91 1007.95 1008.43 1009.07 1009.01 1011.81 1012.47 1013.15 1014.21
1006.92 1006.86 1006.87 1006.91 1006.04 1005.65 1005.43 1005.56 1005.43 1005.39 1005.44 1005.45 1005.37 1005.38 1005.33 1004.97 1005.17 1005.38 1005.88 1007.33 1007.77 1008.15 1008.15 1007.66 1007.13 1007.08 1006.76 1006.58 1006.45 1006.22 1006.64 1006.89 1006.47 1007.92 1008.32 1008.49 1009.40 1009.88 1010.35 1010.71 1012.34 1013.17 1014.38 1015.07
1006.95 1006.50 1006.38 1006.18 1005.73 1005.64 1005.43 1005.30 1005.25 1005.13 1005.26 1005.35 1005.63 1005.37 1005.07 1004.82 1005.15 1005.30 1006.03 1007.42 1008.35 1008.67 1008.70 1008.38 1007.86 1007.97 1008.37 1008.04 1007.95 1007.91 1008.04 1008.37 1009.03 1009.06 1009.27 1009.68 1009.79 1010.81 1011.70 1012.46 1013.69 1014.14 1014.72 1015.36
1008.53 1007.91 1006.73 1006.05 1005.64 1004.95 1004.74 1005.26 1005.11 1005.09 1005.25 1005.23 1005.17 1005.37 1005.19 1004.59 1005.16 1005.57 1006.15 1007.43 1008.61 1009.40 1009.21 1009.03 1008.78 1008.89 1009.21 1009.63 1009.31 1009.32 1009.17 1009.17 1009.27 1009.48 1010.09 1010.50 1011.33 1012.23 1013.48 1014.60 1014.84 1015.30 1015.68 1015.68
1007.64 1006.86 1006.38 1005.28 1005.11 1005.27 1005.10 1005.03 1004.99 1004.93 1005.03 1005.09 1005.27 1005.16 1005.04 1004.58 1005.35 1006.02 1006.61 1007.78 1008.98 1009.76 1009.74 1009.55 1009.52 1009.73 1009.91 1010.22 1010.29 1010.33 1010.19 1009.91 1010.02 1010.45 1011.05 1011.76 1012.48 1013.58 1014.56 1015.18 1016.22 1016.86 1016.50 1016.85
Wind_Speed
10 8 12 15 11 14 15 17 20 20 17 18 18 22 23 22 16 15 11 13 13 13 11 5 5 9 10 10 9 9 9 9 5 10 11 10 8 7 10 10 10 16 11 9
11 16 11 9 10 14 16 19 19 17 16 18 21 25 25 15 9 12 15 13 11 11 11 11 8 8 8 10 9 11 11 11 8 11 12 11 10 9 11 9 9 15 13 9
13 16 8 9 12 16 16 16 16 19 20 20 25 19 15 10 10 18 22 19 17 14 11 11 10 9 10 10 11 11 11 11 12 17 11 10 11 10 8 6 9 13 13 11
11 8 7 11 12 12 13 17 17 20 20 16 20 13 13 11 8 12 16 20 22 23 23 17 16 17 12 12 12 12 12 11 11 13 13 15 14 14 10 6 10 12 12 11
16 19 14 11 10 12 17 15 19 23 23 20 17 9 7 6 11 15 17 18 21 21 21 23 21 21 19 15 14 13 12 12 11 14 15 13 14 13 8 5 12 13 10 11
16 14 15 5 11 18 23 12 19 20 18 10 4 16 9 9 13 17 19 23 24 24 22 23 19 19 17 18 17 16 16 14 15 16 18 17 18 16 13 9 11 12 10 9
21 9 9 2 12 14 17 12 6 6 7 10 23 12 9 9 15 19 24 26 27 26 22 21 18 20 21 20 18 18 18 18 16 18 18 20 18 19 19 11 12 14 11 10
12 9 18 20 13 13 19 4 2 4 9 16 22 4 8 3 18 22 24 25 23 24 25 22 18 19 22 20 13 22 21 19 19 17 18 19 19 14 14 11 14 12 11 11
13 13 25 19 6 13 9 9 7 3 9 8 9 3 12 22 22 27 27 24 24 23 23 24 22 19 21 16 14 25 21 21 21 19 16 18 18 20 15 10 15 11 13 10
11 18 13 14 17 11 2 6 6 3 4 7 10 14 8 24 21 26 27 22 24 22 21 25 21 21 21 21 18 22 15 20 18 19 15 15 17 19 15 16 14 15 12 16
15 10 15 16 15 7 10 3 8 5 4 3 7 8 11 17 21 23 24 20 24 24 21 22 24 29 23 22 20 20 12 16 17 18 15 16 16 18 16 13 12 14 19 19
9 7 12 22 12 10 10 14 11 4 6 5 4 8 16 19 21 21 21 20 24 24 22 22 24 27 15 10 13 14 8 2 6 14 14 15 18 15 10 14 14 21 20 19
8 6 11 12 2 8 18 17 15 11 5 7 3 7 17 18 20 20 19 20 22 23 25 25 22 15 19 22 11 15 10 9 15 12 9 8 10 11 14 18 19 20 21 20
4 6 7 6 17 20 19 20 18 8 4 7 10 18 19 21 20 19 18 17 21 21 21 21 22 15 14 13 14 5 14 23 15 13 6 7 12 20 20 21 20 21 21 20
3 6 14 15 20 23 20 22 13 11 8 3 14 16 18 20 18 16 11 16 19 21 22 21 20 9 7 13 14 16 19 5 9 13 14 15 11 20 22 21 20 18 19 18
6 14 16 16 23 20 20 19 11 8 11 15 13 16 15 18 18 13 12 16 18 19 20 20 19 16 11 15 16 13 6 10 12 15 16 19 10 19 21 19 19 19 18 18
13 8 11 18 21 21 8 11 4 9 11 10 11 16 16 19 18 8 14 14 16 17 17 18 16 11 13 11 12 12 11 9 11 11 14 20 14 15 17 21 20 19 18 18
10 8 9 13 16 8 15 4 10 14 9 10 12 12 16 19 17 7 9 13 15 15 15 15 14 11 11 9 9 8 11 12 9 10 13 17 21 17 16 18 21 17 14 16
7 6 6 6 9 13 4 9 10 16 9 10 11 12 16 20 16 4 12 8 11 14 11 10 12 10 8 11 10 9 11 9 10 6 12 16 18 17 17 20 17 16 16 14
6 8 6 11 8 4 11 12 17 16 3 10 10 15 17 20 14 12 11 6 10 15 12 10 11 10 9 8 7 8 11 11 13 11 5 14 18 20 20 19 18 16 15 17
7 10 12 12 12 5 8 17 14 12 13 17 18 12 13 11 11 10 11 8 6 10 13 13 9 8 8 5 7 8 11 11 12 17 5 16 15 18 20 21 16 17 15 16
12 7 11 9 11 6 21 13 11 7 12 13 11 12 12 12 13 14 13 12 11 10 14 15 8 7 7 7 7 8 16 10 15 17 6 17 14 13 15 23 17 15 16 16
11 6 8 7 10 19 14 11 12 8 10 5 8 9 15 9 9 13 12 12 10 10 9 12 7 8 10 9 8 12 11 10 14 12 12 16 16 16 16 20 17 15 13 11
15 13 11 14 12 18 18 15 9 10 14 11 10 12 19 5 8 12 12 10 10 8 8 9 8 8 9 9 8 9 11 11 13 15 15 16 18 18 17 13 10 10 9 9
12 16 16 17 17 15 10 13 12 10 10 14 6 6 14 8 7 10 11 10 10 7 7 7 6 7 9 8 8 7 9 11 13 15 15 16 14 15 13 11 8 7 6 7
14 15 11 12 12 11 13 14 15 14 13 12 6 8 9 11 8 11 10 9 10 9 7 6 6 8 8 8 8 8 8 12 14 14 12 12 12 11 12 13 14 23 24 25
Wind_Direction
272 262 277 304 3 321 304 290 288 285 298 332 315 307 294 282 280 309 341 328 322 337 328 293 278 225 207 207 199 204 234 261 227 204 190 198 229 204 209 189 176 170 177 173
264 237 260 9 316 298 288 284 289 309 335 318 297 283 273 288 339 324 291 333 353 326 317 316 314 306 254 218 203 199 203 245 232 196 201 200 199 227 206 184 177 166 169 168
310 292 335 308 300 300 296 300 318 320 308 289 284 292 320 330 15 22 3 2 349 338 337 333 316 249 253 241 221 202 207 221 248 188 200 195 208 217 207 191 151 166 173 171
292 264 304 304 305 311 313 320 313 303 299 298 298 299 309 40 27 11 353 347 342 334 327 317 302 292 240 233 218 209 197 208 244 203 198 194 198 207 211 192 160 162 165 158
286 313 310 311 330 328 292 298 300 288 296 288 284 305 293 7 18 3 356 348 335 322 312 311 311 303 283 220 208 201 199 203 234 207 203 200 205 207 201 188 160 160 161 169
256 268 263 332 309 287 300 294 313 311 276 265 345 335 313 47 7 351 346 338 336 326 310 296 295 308 313 299 208 200 191 208 219 210 211 201 206 203 209 193 169 159 164 167
312 23 92 161 307 323 336 3 332 310 342 314 335 323 55 28 354 359 346 342 337 327 308 293 339 321 304 304 293 198 194 195 215 206 209 206 202 205 200 181 173 162 164 168
355 340 8 343 319 318 305 97 141 283 323 313 302 294 20 317 358 352 351 345 343 327 315 322 318 301 284 274 282 280 192 192 207 201 207 205 199 205 199 186 167 166 160 170
313 318 323 301 326 309 333 4 350 150 276 279 282 19 194 7 355 350 342 345 341 326 320 314 297 286 281 274 276 294 190 189 201 196 199 204 200 203 198 186 165 161 159 157
313 306 310 322 303 290 24 298 327 17 308 299 317 310 7 350 354 346 344 345 332 324 322 312 309 300 279 264 269 265 177 189 190 194 194 198 196 194 183 190 175 160 146 133
320 322 311 298 310 327 242 1 312 351 289 306 300 305 20 4 353 347 339 347 332 328 326 316 312 305 277 272 256 206 191 195 177 185 185 196 200 190 183 168 163 131 119 122
352 301 301 304 315 301 36 348 337 335 291 224 251 273 5 360 351 349 333 343 336 328 327 332 324 332 265 180 255 82 50 45 205 192 188 175 203 176 163 171 134 115 122 119
355 331 323 326 123 340 339 325 314 299 301 277 308 282 319 354 351 358 342 341 335 332 335 342 340 345 11 358 340 132 135 217 244 194 187 179 183 158 148 124 117 120 113 112
105 293 303 275 293 294 301 298 293 310 289 317 290 319 335 352 345 354 344 339 334 338 341 343 338 341 20 347 357 305 190 208 196 161 136 113 120 122 113 110 109 112 112 113
242 290 289 309 303 287 284 283 296 295 337 288 314 321 338 344 336 355 339 340 339 344 349 347 350 321 354 357 354 300 286 288 106 103 133 98 130 123 113 110 107 106 106 106
295 295 306 302 295 307 318 26 349 0 330 327 328 331 341 329 335 352 350 347 344 346 346 350 350 357 356 19 357 331 326 101 117 133 112 114 142 111 111 105 103 104 107 107
284 299 309 295 302 307 38 220 10 346 3 5 354 336 312 338 338 7 353 354 345 342 342 348 346 2 357 10 6 355 36 47 90 113 131 114 106 107 112 119 114 108 117 115
255 289 287 304 318 316 355 74 360 4 66 23 350 331 333 329 339 74 23 358 342 342 346 349 342 355 353 1 18 35 44 42 64 107 115 106 122 118 115 103 105 107 104 109
199 276 292 293 321 300 21 15 1 347 5 15 317 299 350 330 333 139 44 25 340 338 346 350 335 345 360 6 19 44 47 74 61 71 120 115 106 112 106 103 106 112 110 109
211 201 243 291 291 266 31 306 351 322 24 315 325 351 348 332 342 347 38 47 343 344 351 1 350 360 7 15 22 72 72 78 75 42 68 109 111 117 113 110 107 107 111 108
310 288 270 257 270 281 7 332 346 351 348 332 323 2 343 321 331 322 9 38 11 353 349 348 12 10 0 11 73 72 76 64 88 71 19 90 103 113 114 110 111 111 112 104
291 295 299 316 313 326 358 350 8 298 310 327 325 7 321 315 329 342 8 17 6 11 356 348 7 19 30 17 84 96 71 65 73 83 111 92 97 106 110 105 108 106 105 105
260 217 290 301 302 317 312 343 337 324 18 14 344 338 315 325 332 337 20 10 20 12 359 345 11 20 23 27 48 78 82 84 90 105 104 105 103 100 100 103 104 101 106 110
307 303 282 283 298 316 315 305 315 357 353 8 356 337 319 35 350 348 15 11 29 7 12 358 8 37 45 35 52 78 99 109 116 110 104 101 98 97 93 91 97 108 117 114
292 300 292 288 286 288 315 353 340 339 341 324 342 337 313 6 13 1 5 11 35 30 34 9 36 50 61 58 68 81 100 113 109 104 104 101 92 91 87 65 66 70 40 101
257 254 262 287 327 313 297 314 325 327 326 317 360 324 310 354 51 17 5 15 36 42 48 37 62 94 83 81 79 88 103 113 112 109 103 105 99 99 102 97 83 62 76 74